DWI1804 MDPC-SKRG

Flight info

Callsign DWI1804
Flight time 2h 7m
Altitude 38000
Route MELLA2T MELLA DCT BEROX DCT AMBAS DCT RHC DCT MGN UW3 BIVIG BIVIG3C
Aircraft B38M/M-SDE1FGHILORVWXY/HB1

Departure

Time 2026-04-26 22:37
Airport Punta Cana International Airport (MDPC)

Arrival

Time 2026-04-27 00:44
Airport Jose Maria Córdova International Airport (SKRG)
Time Latitude Longitude Altitude Speed Heading
2026-04-26 22:05 18.56416 -68.36221 52 ft 0 kts 174°
2026-04-26 22:22 18.56429 -68.36222 52 ft 2 kts 174°
2026-04-26 22:22 18.56443 -68.36224 52 ft 2 kts 175°
2026-04-26 22:23 18.56458 -68.36225 52 ft 2 kts 174°
2026-04-26 22:23 18.56473 -68.36227 52 ft 2 kts 185°
2026-04-26 22:23 18.56484 -68.36222 52 ft 2 kts 221°
2026-04-26 22:23 18.56492 -68.36209 52 ft 1 kts 258°
2026-04-26 22:24 18.56493 -68.36203 52 ft 1 kts 269°
2026-04-26 22:24 18.56493 -68.36200 52 ft 0 kts 265°
2026-04-26 22:26 18.56491 -68.36227 52 ft 6 kts 265°
2026-04-26 22:27 18.56488 -68.36261 52 ft 2 kts 265°
2026-04-26 22:27 18.56487 -68.36282 52 ft 7 kts 264°
2026-04-26 22:27 18.56480 -68.36353 52 ft 11 kts 267°
2026-04-26 22:28 18.56526 -68.36395 52 ft 8 kts 346°
2026-04-26 22:28 18.56557 -68.36433 52 ft 6 kts 268°
2026-04-26 22:28 18.56553 -68.36478 52 ft 7 kts 264°
2026-04-26 22:28 18.56547 -68.36542 52 ft 9 kts 265°
2026-04-26 22:29 18.56541 -68.36624 52 ft 12 kts 265°
2026-04-26 22:29 18.56533 -68.36729 52 ft 15 kts 265°
2026-04-26 22:29 18.56522 -68.36853 52 ft 18 kts 265°
2026-04-26 22:29 18.56509 -68.37002 52 ft 22 kts 265°
2026-04-26 22:30 18.56496 -68.37165 52 ft 21 kts 265°
2026-04-26 22:30 18.56482 -68.37314 52 ft 19 kts 264°
2026-04-26 22:30 18.56470 -68.37450 52 ft 17 kts 265°
2026-04-26 22:30 18.56461 -68.37566 52 ft 14 kts 265°
2026-04-26 22:31 18.56453 -68.37666 52 ft 12 kts 266°
2026-04-26 22:31 18.56452 -68.37714 52 ft 0 kts 275°
2026-04-26 22:33 18.56456 -68.37736 52 ft 6 kts 287°
2026-04-26 22:33 18.56510 -68.37771 52 ft 0 kts 352°
2026-04-26 22:35 18.56528 -68.37773 52 ft 4 kts 352°
2026-04-26 22:35 18.56563 -68.37779 52 ft 8 kts 352°
2026-04-26 22:35 18.56613 -68.37757 52 ft 8 kts 69°
2026-04-26 22:36 18.56621 -68.37675 52 ft 24 kts 85°
2026-04-26 22:36 18.56660 -68.37228 52 ft 95 kts 85°
2026-04-26 22:36 18.56739 -68.36313 52 ft 153 kts 85°
2026-04-26 22:36 18.56846 -68.35098 392 ft 170 kts 85°
2026-04-26 22:37 18.56936 -68.33962 1014 ft 170 kts 85°
2026-04-26 22:37 18.57019 -68.32875 1455 ft 179 kts 85°
2026-04-26 22:37 18.57067 -68.31492 1731 ft 200 kts 94°
2026-04-26 22:37 18.56791 -68.29977 1838 ft 222 kts 109°
2026-04-26 22:38 18.56036 -68.28498 2131 ft 239 kts 129°
2026-04-26 22:38 18.54905 -68.27234 2815 ft 239 kts 137°
2026-04-26 22:38 18.53673 -68.26052 3430 ft 241 kts 138°
2026-04-26 22:38 18.52408 -68.24886 4019 ft 246 kts 141°
2026-04-26 22:39 18.51048 -68.23761 4519 ft 257 kts 143°
2026-04-26 22:39 18.49444 -68.22838 4999 ft 268 kts 169°
2026-04-26 22:39 18.47633 -68.22963 5641 ft 270 kts 201°
2026-04-26 22:39 18.45969 -68.23903 6322 ft 272 kts 213°
2026-04-26 22:40 18.44417 -68.25029 6945 ft 276 kts 215°
2026-04-26 22:40 18.43318 -68.25855 7403 ft 278 kts 215°
2026-04-26 22:40 18.41761 -68.27072 7938 ft 285 kts 216°
2026-04-26 22:40 18.40172 -68.28359 8469 ft 292 kts 216°
2026-04-26 22:41 18.38555 -68.29656 9083 ft 295 kts 216°
2026-04-26 22:41 18.36907 -68.30953 9689 ft 298 kts 216°
2026-04-26 22:41 18.35244 -68.32241 10239 ft 303 kts 215°
2026-04-26 22:41 18.33470 -68.33592 10331 ft 324 kts 215°
2026-04-26 22:42 18.31587 -68.35012 10399 ft 345 kts 215°
2026-04-26 22:42 18.29615 -68.36496 10751 ft 354 kts 215°
2026-04-26 22:42 18.27602 -68.38011 11263 ft 358 kts 215°
2026-04-26 22:42 18.25565 -68.39544 11787 ft 361 kts 215°
2026-04-26 22:43 18.23547 -68.41062 12297 ft 363 kts 215°
2026-04-26 22:43 18.21815 -68.42364 12713 ft 365 kts 215°
2026-04-26 22:43 18.19750 -68.43917 13198 ft 368 kts 215°
2026-04-26 22:43 18.17666 -68.45483 13677 ft 371 kts 215°
2026-04-26 22:44 18.15563 -68.47064 14143 ft 374 kts 215°
2026-04-26 22:44 18.13447 -68.48653 14595 ft 375 kts 215°
2026-04-26 22:44 18.11321 -68.50250 15007 ft 379 kts 215°
2026-04-26 22:44 18.09183 -68.51855 15466 ft 381 kts 215°
2026-04-26 22:45 18.07024 -68.53475 15897 ft 384 kts 215°
2026-04-26 22:45 18.04849 -68.55107 16324 ft 387 kts 215°
2026-04-26 22:45 18.02669 -68.56742 16735 ft 389 kts 215°
2026-04-26 22:45 18.00441 -68.58413 17145 ft 392 kts 215°
2026-04-26 22:46 17.98238 -68.60063 17538 ft 394 kts 215°
2026-04-26 22:46 17.95994 -68.61746 17929 ft 397 kts 215°
2026-04-26 22:46 17.93770 -68.63412 18309 ft 399 kts 215°
2026-04-26 22:46 17.91499 -68.65112 18688 ft 401 kts 215°
2026-04-26 22:47 17.89219 -68.66818 19058 ft 404 kts 215°
2026-04-26 22:47 17.86924 -68.68536 19420 ft 406 kts 215°
2026-04-26 22:47 17.84646 -68.70241 19772 ft 408 kts 215°
2026-04-26 22:47 17.82331 -68.71973 20116 ft 411 kts 215°
2026-04-26 22:48 17.79993 -68.73721 20458 ft 413 kts 215°
2026-04-26 22:48 17.77676 -68.75453 20781 ft 415 kts 215°
2026-04-26 22:48 17.75316 -68.77216 21106 ft 417 kts 215°
2026-04-26 22:48 17.72943 -68.78989 21420 ft 419 kts 215°
2026-04-26 22:49 17.70573 -68.80759 21729 ft 421 kts 215°
2026-04-26 22:49 17.68178 -68.82547 22034 ft 423 kts 215°
2026-04-26 22:49 17.65800 -68.84322 22325 ft 425 kts 215°
2026-04-26 22:49 17.63378 -68.86128 22620 ft 427 kts 215°
2026-04-26 22:50 17.60978 -68.87919 22899 ft 429 kts 215°
2026-04-26 22:50 17.58532 -68.89743 23191 ft 431 kts 215°
2026-04-26 22:50 17.57185 -68.90746 23348 ft 432 kts 215°
2026-04-26 22:50 17.54736 -68.92571 23623 ft 433 kts 215°
2026-04-26 22:51 17.52286 -68.94396 23901 ft 435 kts 215°
2026-04-26 22:51 17.49833 -68.96223 24168 ft 437 kts 215°
2026-04-26 22:51 17.47329 -68.98086 24439 ft 438 kts 215°
2026-04-26 22:51 17.44855 -68.99927 24703 ft 440 kts 215°
2026-04-26 22:52 17.42385 -69.01765 24956 ft 441 kts 215°
2026-04-26 22:52 17.39877 -69.03630 25213 ft 443 kts 215°
2026-04-26 22:52 17.37376 -69.05489 25462 ft 444 kts 215°
2026-04-26 22:52 17.34858 -69.07360 25705 ft 445 kts 215°
2026-04-26 22:53 17.32343 -69.09228 25944 ft 447 kts 215°
2026-04-26 22:53 17.29789 -69.11124 26180 ft 448 kts 216°
2026-04-26 22:53 17.27249 -69.13010 26409 ft 449 kts 216°
2026-04-26 22:53 17.24698 -69.14903 26618 ft 451 kts 216°
2026-04-26 22:54 17.22156 -69.16788 26833 ft 453 kts 216°
2026-04-26 22:54 17.19586 -69.18694 27044 ft 454 kts 216°
2026-04-26 22:54 17.17011 -69.20604 27249 ft 455 kts 216°
2026-04-26 22:54 17.15327 -69.21851 27384 ft 456 kts 216°
2026-04-26 22:55 17.13869 -69.22932 27496 ft 457 kts 216°
2026-04-26 22:55 17.11283 -69.24847 27693 ft 459 kts 216°
2026-04-26 22:55 17.08655 -69.26793 27859 ft 461 kts 216°
2026-04-26 22:55 17.06045 -69.28725 28024 ft 463 kts 216°
2026-04-26 22:56 17.03429 -69.30661 28194 ft 465 kts 216°
2026-04-26 22:56 17.00797 -69.32607 28351 ft 467 kts 216°
2026-04-26 22:56 16.98120 -69.34586 28513 ft 469 kts 216°
2026-04-26 22:56 16.95466 -69.36548 28668 ft 471 kts 216°
2026-04-26 22:57 16.93919 -69.37691 28772 ft 471 kts 216°
2026-04-26 22:57 16.89823 -69.40716 29045 ft 473 kts 216°
2026-04-26 22:57 16.87165 -69.42679 29206 ft 474 kts 216°
2026-04-26 22:58 16.84466 -69.44671 29372 ft 476 kts 216°
2026-04-26 22:58 16.81762 -69.46665 29528 ft 477 kts 216°
2026-04-26 22:58 16.79052 -69.48663 29688 ft 478 kts 216°
2026-04-26 22:58 16.76325 -69.50674 29840 ft 479 kts 216°
2026-04-26 22:59 16.73641 -69.52652 30132 ft 480 kts 216°
2026-04-26 22:59 16.70915 -69.54660 30454 ft 479 kts 216°
2026-04-26 22:59 16.68204 -69.56657 30771 ft 479 kts 216°
2026-04-26 22:59 16.65819 -69.58418 31194 ft 474 kts 216°
2026-04-26 23:00 16.63980 -69.59782 31663 ft 468 kts 216°
2026-04-26 23:00 16.61314 -69.61747 31924 ft 469 kts 216°
2026-04-26 23:00 16.58642 -69.63711 32018 ft 474 kts 216°
2026-04-26 23:00 16.55932 -69.65704 32242 ft 475 kts 216°
2026-04-26 23:01 16.53233 -69.67687 32507 ft 475 kts 216°
2026-04-26 23:01 16.50567 -69.69646 32790 ft 474 kts 216°
2026-04-26 23:01 16.47850 -69.71641 33069 ft 474 kts 216°
2026-04-26 23:01 16.45172 -69.73608 33342 ft 473 kts 216°
2026-04-26 23:02 16.43424 -69.74891 33521 ft 473 kts 216°
2026-04-26 23:02 16.42056 -69.75894 33657 ft 473 kts 216°
2026-04-26 23:02 16.39930 -69.77454 33868 ft 472 kts 216°
2026-04-26 23:02 16.38434 -69.78551 34021 ft 472 kts 216°
2026-04-26 23:03 16.36463 -69.79997 34214 ft 471 kts 216°
2026-04-26 23:03 16.33784 -69.81960 34467 ft 471 kts 216°
2026-04-26 23:03 16.31082 -69.83940 34714 ft 470 kts 216°
2026-04-26 23:03 16.28431 -69.85882 34860 ft 469 kts 216°
2026-04-26 23:04 16.25782 -69.87822 35009 ft 469 kts 216°
2026-04-26 23:04 16.23113 -69.89775 35145 ft 468 kts 216°
2026-04-26 23:04 16.20446 -69.91727 35277 ft 468 kts 216°
2026-04-26 23:04 16.17795 -69.93666 35407 ft 468 kts 216°
2026-04-26 23:05 16.15170 -69.95586 35531 ft 467 kts 216°
2026-04-26 23:05 16.12521 -69.97522 35663 ft 467 kts 216°
2026-04-26 23:05 16.09838 -69.99483 35792 ft 467 kts 216°
2026-04-26 23:05 16.07226 -70.01392 35921 ft 466 kts 216°
2026-04-26 23:06 16.04568 -70.03332 36052 ft 466 kts 216°
2026-04-26 23:06 16.01929 -70.05254 36194 ft 466 kts 214°
2026-04-26 23:06 15.99175 -70.07025 36323 ft 466 kts 211°
2026-04-26 23:06 15.96344 -70.08687 36460 ft 466 kts 210°
2026-04-26 23:07 15.93551 -70.10296 36582 ft 466 kts 210°
2026-04-26 23:07 15.90724 -70.11917 36703 ft 466 kts 210°
2026-04-26 23:07 15.87851 -70.13561 36820 ft 466 kts 210°
2026-04-26 23:07 15.85018 -70.15179 36926 ft 466 kts 210°
2026-04-26 23:08 15.82218 -70.16778 37030 ft 466 kts 210°
2026-04-26 23:08 15.79380 -70.18395 37132 ft 466 kts 210°
2026-04-26 23:08 15.76530 -70.20019 37234 ft 466 kts 210°
2026-04-26 23:08 15.73687 -70.21638 37338 ft 466 kts 209°
2026-04-26 23:09 15.70852 -70.23250 37438 ft 466 kts 209°
2026-04-26 23:09 15.68032 -70.24854 37541 ft 466 kts 209°
2026-04-26 23:09 15.65198 -70.26464 37640 ft 466 kts 209°
2026-04-26 23:09 15.62349 -70.28082 37745 ft 466 kts 209°
2026-04-26 23:10 15.59536 -70.29680 37858 ft 466 kts 209°
2026-04-26 23:10 15.54686 -70.32433 37913 ft 469 kts 209°
2026-04-26 23:11 15.49810 -70.35197 37913 ft 473 kts 209°
2026-04-26 23:11 15.44019 -70.38480 37912 ft 478 kts 209°
2026-04-26 23:12 15.38211 -70.41770 37912 ft 481 kts 209°
2026-04-26 23:12 15.32339 -70.45094 37911 ft 482 kts 209°
2026-04-26 23:13 15.26476 -70.48410 37911 ft 481 kts 209°
2026-04-26 23:13 15.20608 -70.51727 37912 ft 480 kts 209°
2026-04-26 23:14 15.14766 -70.55028 37912 ft 481 kts 209°
2026-04-26 23:14 15.08907 -70.58335 37912 ft 481 kts 209°
2026-04-26 23:15 15.03074 -70.61626 37918 ft 480 kts 209°
2026-04-26 23:15 14.97241 -70.64915 37939 ft 480 kts 210°
2026-04-26 23:16 14.91377 -70.68220 37939 ft 480 kts 209°
2026-04-26 23:16 14.85561 -70.71497 37939 ft 479 kts 209°
2026-04-26 23:17 14.79716 -70.74787 37939 ft 479 kts 209°
2026-04-26 23:17 14.73881 -70.78069 37939 ft 480 kts 209°
2026-04-26 23:18 14.68027 -70.81360 37939 ft 480 kts 209°
2026-04-26 23:18 14.62182 -70.84644 37938 ft 479 kts 209°
2026-04-26 23:19 14.56352 -70.87917 37939 ft 479 kts 209°
2026-04-26 23:19 14.50543 -70.91176 37939 ft 478 kts 209°
2026-04-26 23:20 14.44686 -70.94460 37939 ft 478 kts 209°
2026-04-26 23:20 14.38876 -70.97716 37939 ft 478 kts 209°
2026-04-26 23:21 14.33073 -71.00965 37939 ft 478 kts 209°
2026-04-26 23:21 14.27253 -71.04223 37939 ft 477 kts 209°
2026-04-26 23:22 14.21441 -71.07474 37939 ft 477 kts 209°
2026-04-26 23:22 14.15612 -71.10733 38185 ft 474 kts 209°
2026-04-26 23:22 14.12748 -71.12333 38355 ft 472 kts 209°
2026-04-26 23:23 14.09896 -71.13927 38528 ft 471 kts 209°
2026-04-26 23:23 14.07013 -71.15537 38702 ft 470 kts 209°
2026-04-26 23:23 14.04140 -71.17140 38880 ft 469 kts 209°
2026-04-26 23:23 14.01316 -71.18717 39052 ft 469 kts 209°
2026-04-26 23:24 13.98437 -71.20324 39202 ft 470 kts 209°
2026-04-26 23:24 13.95596 -71.21909 39327 ft 471 kts 209°
2026-04-26 23:24 13.92722 -71.23511 39456 ft 472 kts 209°
2026-04-26 23:24 13.89830 -71.25124 39582 ft 472 kts 209°
2026-04-26 23:25 13.86918 -71.26747 39709 ft 472 kts 209°
2026-04-26 23:25 13.84050 -71.28346 39833 ft 473 kts 209°
2026-04-26 23:25 13.81155 -71.29958 39933 ft 473 kts 209°
2026-04-26 23:26 13.75381 -71.33173 39939 ft 474 kts 209°
2026-04-26 23:26 13.69635 -71.36370 39939 ft 474 kts 209°
2026-04-26 23:27 13.63830 -71.39599 39939 ft 475 kts 209°
2026-04-26 23:27 13.58052 -71.42811 39939 ft 476 kts 209°
2026-04-26 23:28 13.52244 -71.46037 39939 ft 476 kts 209°
2026-04-26 23:28 13.46406 -71.49278 39939 ft 477 kts 209°
2026-04-26 23:29 13.40565 -71.52520 39939 ft 477 kts 209°
2026-04-26 23:29 13.34773 -71.55733 39938 ft 477 kts 209°
2026-04-26 23:30 13.28917 -71.58978 39939 ft 477 kts 209°
2026-04-26 23:30 13.23113 -71.62194 39939 ft 477 kts 209°
2026-04-26 23:31 13.17293 -71.65417 39939 ft 477 kts 209°
2026-04-26 23:31 13.11451 -71.68650 39939 ft 477 kts 209°
2026-04-26 23:32 13.05612 -71.71880 39939 ft 478 kts 209°
2026-04-26 23:32 12.99788 -71.75101 39939 ft 478 kts 209°
2026-04-26 23:33 12.93954 -71.78324 39939 ft 479 kts 210°
2026-04-26 23:33 12.88093 -71.81561 39938 ft 479 kts 210°
2026-04-26 23:34 12.82407 -71.85118 39939 ft 477 kts 217°
2026-04-26 23:34 12.77121 -71.89136 39939 ft 477 kts 219°
2026-04-26 23:35 12.71888 -71.93323 39939 ft 477 kts 220°
2026-04-26 23:35 12.66744 -71.97526 39939 ft 477 kts 220°
2026-04-26 23:36 12.61605 -72.01761 39943 ft 477 kts 220°
2026-04-26 23:36 12.56424 -72.06049 39962 ft 476 kts 220°
2026-04-26 23:37 12.51309 -72.10289 39982 ft 476 kts 221°
2026-04-26 23:37 12.46177 -72.14547 39997 ft 477 kts 221°
2026-04-26 23:38 12.41024 -72.18823 39976 ft 477 kts 221°
2026-04-26 23:38 12.35875 -72.23096 39945 ft 477 kts 221°
2026-04-26 23:39 12.30756 -72.27344 39913 ft 477 kts 221°
2026-04-26 23:39 12.25640 -72.31587 39912 ft 476 kts 221°
2026-04-26 23:40 12.20482 -72.35862 39912 ft 477 kts 221°
2026-04-26 23:40 12.15342 -72.40121 39912 ft 477 kts 221°
2026-04-26 23:41 12.10211 -72.44369 39912 ft 477 kts 221°
2026-04-26 23:41 12.05069 -72.48624 39912 ft 477 kts 221°
2026-04-26 23:42 11.99872 -72.52820 39908 ft 478 kts 214°
2026-04-26 23:42 11.91176 -72.57755 39912 ft 479 kts 209°
2026-04-26 23:43 11.85293 -72.60958 39912 ft 479 kts 209°
2026-04-26 23:43 11.79435 -72.64146 39912 ft 479 kts 209°
2026-04-26 23:44 11.73574 -72.67334 39912 ft 479 kts 209°
2026-04-26 23:44 11.67688 -72.70534 39912 ft 479 kts 209°
2026-04-26 23:45 11.61811 -72.73729 39912 ft 479 kts 209°
2026-04-26 23:45 11.55951 -72.76913 39912 ft 479 kts 209°
2026-04-26 23:46 11.50110 -72.80084 39912 ft 479 kts 209°
2026-04-26 23:46 11.44232 -72.83275 39912 ft 479 kts 209°
2026-04-26 23:47 11.38397 -72.86440 39912 ft 479 kts 209°
2026-04-26 23:47 11.32495 -72.89640 39912 ft 479 kts 209°
2026-04-26 23:48 11.26625 -72.92821 39912 ft 479 kts 209°
2026-04-26 23:48 11.20773 -72.95991 39912 ft 479 kts 209°
2026-04-26 23:49 11.14912 -72.99165 39912 ft 479 kts 209°
2026-04-26 23:49 11.09025 -73.02351 39912 ft 479 kts 208°
2026-04-26 23:50 11.03176 -73.05515 39912 ft 478 kts 208°
2026-04-26 23:50 10.97325 -73.08678 39912 ft 475 kts 207°
2026-04-26 23:51 10.91533 -73.11809 39911 ft 468 kts 207°
2026-04-26 23:51 10.85860 -73.14874 39911 ft 461 kts 207°
2026-04-26 23:52 10.80202 -73.17930 39912 ft 459 kts 207°
2026-04-26 23:52 10.74558 -73.20976 39912 ft 460 kts 207°
2026-04-26 23:53 10.68915 -73.24020 39912 ft 460 kts 207°
2026-04-26 23:53 10.63290 -73.27054 39912 ft 460 kts 207°
2026-04-26 23:54 10.57880 -73.29971 39912 ft 460 kts 207°
2026-04-26 23:54 10.53478 -73.32335 39916 ft 460 kts 207°
2026-04-26 23:55 10.47815 -73.35384 39912 ft 460 kts 207°
2026-04-26 23:55 10.42206 -73.38405 39911 ft 460 kts 207°
2026-04-26 23:56 10.36533 -73.41458 39912 ft 460 kts 207°
2026-04-26 23:56 10.30895 -73.44492 39912 ft 460 kts 207°
2026-04-26 23:57 10.25292 -73.47505 39911 ft 460 kts 207°
2026-04-26 23:57 10.19650 -73.50539 39912 ft 460 kts 207°
2026-04-26 23:58 10.13986 -73.53582 39912 ft 460 kts 207°
2026-04-26 23:58 10.08345 -73.56612 39912 ft 460 kts 207°
2026-04-26 23:59 10.02744 -73.59619 39912 ft 460 kts 207°
2026-04-26 23:59 9.97079 -73.62659 39912 ft 460 kts 207°
2026-04-27 00:00 9.91437 -73.65687 39912 ft 460 kts 207°
2026-04-27 00:00 9.85785 -73.68718 39912 ft 460 kts 207°
2026-04-27 00:01 9.80176 -73.71725 39912 ft 460 kts 207°
2026-04-27 00:01 9.74498 -73.74767 39912 ft 460 kts 207°
2026-04-27 00:02 9.68852 -73.77792 39912 ft 460 kts 207°
2026-04-27 00:02 9.63210 -73.80813 39912 ft 460 kts 207°
2026-04-27 00:03 9.57566 -73.83834 39912 ft 460 kts 207°
2026-04-27 00:03 9.51930 -73.86850 39912 ft 460 kts 207°
2026-04-27 00:04 9.46278 -73.89873 39912 ft 460 kts 207°
2026-04-27 00:04 9.40676 -73.92868 39911 ft 460 kts 207°
2026-04-27 00:05 9.35038 -73.95882 39905 ft 460 kts 207°
2026-04-27 00:05 9.29407 -73.98890 39898 ft 460 kts 207°
2026-04-27 00:06 9.23759 -74.01907 39885 ft 460 kts 207°
2026-04-27 00:06 9.18107 -74.04924 39870 ft 460 kts 207°
2026-04-27 00:07 9.12455 -74.07941 39860 ft 460 kts 207°
2026-04-27 00:07 9.06834 -74.10939 39858 ft 460 kts 207°
2026-04-27 00:08 9.01172 -74.13959 39858 ft 461 kts 207°
2026-04-27 00:08 8.95550 -74.16956 39858 ft 461 kts 207°
2026-04-27 00:09 8.89861 -74.19988 39858 ft 461 kts 207°
2026-04-27 00:09 8.84179 -74.23014 39880 ft 461 kts 207°
2026-04-27 00:10 8.78530 -74.26023 39885 ft 461 kts 207°
2026-04-27 00:10 8.72860 -74.29041 39885 ft 461 kts 207°
2026-04-27 00:11 8.69032 -74.31078 39885 ft 461 kts 207°
2026-04-27 00:11 8.63375 -74.34088 39885 ft 461 kts 207°
2026-04-27 00:12 8.57701 -74.37106 39884 ft 461 kts 207°
2026-04-27 00:12 8.52041 -74.40115 39885 ft 461 kts 207°
2026-04-27 00:13 8.46391 -74.43118 39885 ft 461 kts 207°
2026-04-27 00:13 8.40736 -74.46124 39885 ft 461 kts 207°
2026-04-27 00:14 8.35075 -74.49130 39885 ft 461 kts 207°
2026-04-27 00:14 8.29415 -74.52135 39884 ft 461 kts 207°
2026-04-27 00:15 8.23741 -74.55147 39880 ft 461 kts 207°
2026-04-27 00:15 8.18084 -74.58149 39879 ft 461 kts 207°
2026-04-27 00:16 8.12401 -74.61164 39877 ft 461 kts 207°
2026-04-27 00:16 8.06771 -74.64150 39871 ft 461 kts 207°
2026-04-27 00:17 8.01245 -74.67078 39864 ft 461 kts 207°
2026-04-27 00:17 7.95970 -74.69875 39863 ft 461 kts 207°
2026-04-27 00:18 7.90341 -74.72857 39758 ft 463 kts 207°
2026-04-27 00:18 7.87458 -74.74384 39575 ft 464 kts 207°
2026-04-27 00:18 7.84623 -74.75885 39399 ft 462 kts 207°
2026-04-27 00:19 7.81776 -74.77393 39217 ft 461 kts 207°
2026-04-27 00:19 7.78966 -74.78881 39013 ft 460 kts 207°
2026-04-27 00:19 7.76151 -74.80371 38767 ft 460 kts 207°
2026-04-27 00:19 7.73309 -74.81875 38517 ft 460 kts 207°
2026-04-27 00:20 7.70498 -74.83363 38269 ft 460 kts 207°
2026-04-27 00:20 7.67676 -74.84856 38019 ft 460 kts 207°
2026-04-27 00:20 7.64866 -74.86343 37858 ft 457 kts 207°
2026-04-27 00:20 7.62051 -74.87832 37858 ft 456 kts 207°
2026-04-27 00:21 7.56393 -74.90788 37880 ft 459 kts 203°
2026-04-27 00:21 7.50514 -74.92934 37934 ft 444 kts 197°
2026-04-27 00:22 7.44703 -74.94859 37975 ft 441 kts 197°
2026-04-27 00:22 7.38890 -74.96780 38008 ft 445 kts 197°
2026-04-27 00:23 7.33017 -74.98721 37500 ft 442 kts 198°
2026-04-27 00:23 7.30111 -74.99682 36826 ft 441 kts 198°
2026-04-27 00:23 7.27188 -75.00648 36213 ft 438 kts 198°
2026-04-27 00:24 7.24308 -75.01599 35588 ft 436 kts 198°
2026-04-27 00:24 7.21456 -75.02541 34939 ft 434 kts 198°
2026-04-27 00:24 7.18566 -75.03496 34268 ft 436 kts 198°
2026-04-27 00:24 7.15650 -75.04298 33742 ft 438 kts 192°
2026-04-27 00:25 7.12696 -75.04933 33474 ft 440 kts 191°
2026-04-27 00:25 7.09666 -75.05559 33222 ft 445 kts 191°
2026-04-27 00:25 7.06604 -75.06187 32967 ft 448 kts 191°
2026-04-27 00:25 7.03578 -75.06808 32716 ft 449 kts 191°
2026-04-27 00:26 7.00516 -75.07437 32463 ft 449 kts 191°
2026-04-27 00:26 6.97441 -75.08067 32211 ft 451 kts 191°
2026-04-27 00:26 6.94359 -75.08697 31961 ft 454 kts 191°
2026-04-27 00:26 6.91285 -75.09320 31713 ft 457 kts 191°
2026-04-27 00:27 6.88163 -75.09945 31462 ft 460 kts 191°
2026-04-27 00:27 6.85007 -75.10571 31210 ft 461 kts 191°
2026-04-27 00:27 6.81886 -75.11200 30960 ft 461 kts 191°
2026-04-27 00:27 6.78763 -75.11839 30710 ft 460 kts 191°
2026-04-27 00:28 6.75653 -75.12479 30461 ft 460 kts 191°
2026-04-27 00:28 6.72510 -75.13125 30208 ft 459 kts 191°
2026-04-27 00:28 6.69401 -75.13763 29841 ft 450 kts 191°
2026-04-27 00:28 6.66397 -75.14381 29369 ft 443 kts 191°
2026-04-27 00:29 6.63357 -75.15006 28852 ft 449 kts 191°
2026-04-27 00:29 6.60313 -75.15631 28218 ft 447 kts 191°
2026-04-27 00:29 6.57276 -75.16255 27580 ft 441 kts 191°
2026-04-27 00:29 6.54318 -75.16863 26961 ft 435 kts 191°
2026-04-27 00:30 6.51391 -75.17464 26344 ft 430 kts 191°
2026-04-27 00:30 6.48496 -75.18059 25731 ft 425 kts 191°
2026-04-27 00:30 6.45620 -75.18650 25120 ft 420 kts 191°
2026-04-27 00:30 6.42791 -75.19231 24514 ft 416 kts 191°
2026-04-27 00:31 6.39981 -75.19808 23911 ft 411 kts 191°
2026-04-27 00:31 6.37203 -75.20378 23312 ft 407 kts 191°
2026-04-27 00:31 6.34443 -75.20945 22716 ft 402 kts 191°
2026-04-27 00:31 6.31735 -75.21500 22129 ft 399 kts 191°
2026-04-27 00:32 6.29001 -75.22062 21538 ft 403 kts 191°
2026-04-27 00:32 6.26253 -75.22626 20926 ft 398 kts 191°
2026-04-27 00:32 6.23718 -75.23146 20385 ft 393 kts 191°
2026-04-27 00:32 6.21033 -75.23697 19893 ft 386 kts 191°
2026-04-27 00:33 6.18442 -75.24229 19509 ft 383 kts 191°
2026-04-27 00:33 6.15796 -75.24771 19265 ft 388 kts 191°
2026-04-27 00:33 6.13209 -75.25302 18793 ft 378 kts 191°
2026-04-27 00:33 6.10603 -75.25836 17955 ft 387 kts 191°
2026-04-27 00:34 6.07977 -75.26374 17227 ft 386 kts 191°
2026-04-27 00:34 6.05375 -75.26908 16626 ft 381 kts 191°
2026-04-27 00:34 6.02786 -75.27439 16041 ft 376 kts 191°
2026-04-27 00:34 6.00277 -75.27953 15342 ft 365 kts 191°
2026-04-27 00:35 5.97809 -75.28459 14579 ft 355 kts 191°
2026-04-27 00:35 5.95436 -75.28945 13862 ft 346 kts 191°
2026-04-27 00:35 5.93143 -75.29421 13263 ft 335 kts 192°
2026-04-27 00:35 5.90956 -75.30037 12950 ft 315 kts 208°
2026-04-27 00:36 5.89337 -75.31326 13017 ft 284 kts 229°
2026-04-27 00:36 5.88289 -75.32898 12973 ft 260 kts 244°
2026-04-27 00:36 5.87717 -75.34560 12990 ft 242 kts 259°
2026-04-27 00:36 5.87549 -75.36166 13021 ft 223 kts 269°
2026-04-27 00:37 5.87541 -75.37252 12983 ft 214 kts 271°
2026-04-27 00:37 5.87588 -75.38720 13010 ft 202 kts 277°
2026-04-27 00:37 5.87956 -75.40069 12979 ft 198 kts 297°
2026-04-27 00:37 5.88721 -75.41170 13010 ft 187 kts 317°
2026-04-27 00:38 5.89757 -75.41913 12976 ft 178 kts 336°
2026-04-27 00:38 5.90893 -75.42262 12882 ft 168 kts 355°
2026-04-27 00:38 5.92045 -75.42323 12400 ft 168 kts
2026-04-27 00:38 5.93257 -75.42313 11661 ft 180 kts
2026-04-27 00:39 5.94512 -75.42283 10909 ft 185 kts
2026-04-27 00:39 5.95771 -75.42263 10356 ft 177 kts
2026-04-27 00:39 5.96945 -75.42259 10064 ft 162 kts
2026-04-27 00:39 5.98054 -75.42258 10040 ft 160 kts
2026-04-27 00:40 5.99192 -75.42257 10051 ft 168 kts
2026-04-27 00:40 6.00363 -75.42255 9773 ft 168 kts
2026-04-27 00:40 6.01501 -75.42256 9575 ft 160 kts
2026-04-27 00:40 6.02630 -75.42263 9371 ft 163 kts
2026-04-27 00:41 6.03753 -75.42268 9135 ft 163 kts
2026-04-27 00:41 6.04873 -75.42272 8905 ft 161 kts
2026-04-27 00:41 6.05989 -75.42275 8703 ft 159 kts
2026-04-27 00:41 6.07104 -75.42278 8499 ft 160 kts
2026-04-27 00:42 6.08195 -75.42281 8284 ft 160 kts
2026-04-27 00:42 6.09294 -75.42284 8067 ft 159 kts
2026-04-27 00:42 6.10398 -75.42287 7859 ft 158 kts
2026-04-27 00:42 6.11495 -75.42291 7653 ft 157 kts
2026-04-27 00:43 6.12588 -75.42294 7442 ft 157 kts 360°
2026-04-27 00:43 6.13678 -75.42298 7238 ft 159 kts 360°
2026-04-27 00:43 6.14783 -75.42302 7081 ft 160 kts 359°
2026-04-27 00:43 6.15859 -75.42306 7034 ft 138 kts 360°
2026-04-27 00:44 6.16658 -75.42313 7033 ft 93 kts 360°
2026-04-27 00:44 6.17182 -75.42317 7033 ft 61 kts 359°
2026-04-27 00:44 6.17525 -75.42318 7033 ft 29 kts 359°
2026-04-27 00:44 6.17742 -75.42316 7033 ft 34 kts 360°
2026-04-27 00:45 6.18005 -75.42323 7033 ft 24 kts 352°
2026-04-27 00:45 6.18040 -75.42385 7033 ft 6 kts 219°
2026-04-27 00:45 6.18026 -75.42406 7033 ft 4 kts 264°
2026-04-27 00:45 6.18021 -75.42451 7033 ft 9 kts 263°
2026-04-27 00:46 6.17972 -75.42492 7033 ft 12 kts 175°
2026-04-27 00:46 6.17869 -75.42491 7033 ft 17 kts 181°
2026-04-27 00:46 6.17732 -75.42493 7033 ft 21 kts 177°
2026-04-27 00:46 6.17577 -75.42496 7033 ft 21 kts 194°
2026-04-27 00:47 6.17438 -75.42577 7033 ft 24 kts 217°
2026-04-27 00:47 6.17335 -75.42654 7033 ft 9 kts 242°
2026-04-27 00:47 6.17331 -75.42670 7033 ft 4 kts 269°
2026-04-27 00:47 6.17337 -75.42699 7033 ft 1 kts 258°
2026-04-27 00:48 6.17321 -75.42722 7033 ft 6 kts 222°
2026-04-27 00:48 6.17292 -75.42748 7033 ft 5 kts 221°
2026-04-27 00:48 6.17285 -75.42754 7033 ft 0 kts 221°